Location: Kott?ru
(16.6209°N, 80.6208°E)
Time: 11:08:56
(UTC+00:00)

Max Valier Satellite - Pass Details

Date: 17 June 2023
Orbit: 426 x 438 km, 97.1° (Epoch: 01 October)

Event Time Altitude Azimuth Distance (km) Brightness Sun altitude
Exits shadow 13:29:30 - 122° (ESE) 1,968 ? -4.6°
Reaches altitude 10° 13:30:56 10° 105° (ESE) 1,591 ? -4.9°
Drops below altitude 10° 13:34:12 10° 47° (NE) 1,576 ? -5.6°
Enters shadow 14:33:52 -59° 172° (S) 11,521 ? -18.1°
Maximum altitude 15:05:12 16° 261° (W) 1,289 ? -24.3°
